sat.trackr.live / text

‹ back to catalog

STARLINK-36685

NORAD 68717 · 2026-081U

PAYLOAD ACTIVE UNKNOWN

§ Identity

Operator
Country
US
Launch date
2026-04-14
Launch site
AFETR
Launch vehicle
Mass (kg)
RCS (m²)

Purposes: comms

External: N2YO · Heavens-Above · Gunter

§ Orbital elements

Epoch: 2026-05-25T04:00:03.998880Z

Period
93.40 min
Inclination
53.1598°
Eccentricity
0.0001592
Mean motion
15.41814281 rev/d
Perigee alt
439.7 km
Apogee alt
441.8 km
Semi-major
6,818.9 km
B*
-4.7053e-2
RAAN
38.9828°
Arg perigee
78.7673°
Mean anomaly
154.1228°
Rev number
601

§ Raw data

STARLINK-366851 68717U 26081U   26145.16671295 -.01823266  00000+0 -47053-1 0  99902 68717  53.1598  38.9828 0001592  78.7673 154.1228 15.41814281  6010

JSON: /api/v1/satellites/68717 · /tle

For live sub-satellite position, see the globe view (requires WebGL).

§ Visibility from observer

Set your observer location to see the next 7 days of passes ≥ 10°. The values pass through the URL so the page stays shareable.

No JS? Fill the form by hand. The geolocation button needs JavaScript.